Kosmos-2570

operational
NORAD ID: 58148 Int'l Des: 2023-165 Owner: VVKOV Country: RU
LEOCIRCULAR

关于 Kosmos-2570

正在加载描述...

实时位置

正在加载3D地球...

即将过境

高度历史

Altitude vs Time

uPlot chart will show altitude changes over time

两行轨道根数

1 58148U 23165A 26062.13375874 -.00000040 00000-0 25715-4 0 9996
2 58148 67.1489 187.1836 0005435 277.4697 82.5770 13.96672255119822
Epoch: Mar 3, 2026 • Age: 25 hours

当前状态

高度 910.1 km
速度 7.40 km/s
星下点 26.64°N, 177.23°W
发射日期 Oct 27, 2023
运行时间 2.3 years
类型 other

技术详情

分类 Payload
质量 6575.00 kg
干质量 6500.00 kg
总质量 6575.00 kg
长度 6.30 m
直径 2.70 m
跨度 6.30 m
形状 Cyl + 2 Pan
制造商 TSSKBP/ARSLO
平台类型 Yantar'-Lotos
阶段状态 In Orbit
所有者/国家 VVKOV/RU

大型星座

Loading constellations...